Location: Étavigny
(49.1201°N, 2.9800°E)
Time: 07:00:44
(UTC+00:00)

Cosmos 2082 - Pass Details

Date: 28 January 2023
Orbit: 834 x 854 km, 71.0° (Epoch: 30 March)

Event Time Altitude Azimuth Distance (km) Brightness Sun altitude
Rises 17:13:52 0° 332° (NNW) 3,398 6.9 -6.2°
Reaches altitude 10° 17:16:21 10° 336° (NNW) 2,458 6.2 -6.6°
Maximum altitude 17:21:57 65° 58° (ENE) 916 3.7 -7.5°
Drops below altitude 10° 17:27:31 10° 141° (SE) 2,441 5.9 -8.3°
Sets 17:29:58 0° 144° (SE) 3,372 6.6 -8.7°
